Location: Killam
(52.7910°N, 111.8608°W)
Time: 13:29:43
(UTC+00:00)

BlueWalker 3 - Pass Details

Date: 30 January 2026
Orbit: 450 x 461 km, 53.2° (Epoch: 11 February)

Event Time Altitude Azimuth Distance (km) Brightness Sun altitude
Rises 02:53:32 0° 278° (W) 2,460 6.8 -25.0°
Reaches altitude 10° 02:55:40 10° 279° (W) 1,586 5.5 -25.3°
Enters shadow 02:57:55 37° 280° (W) 724 3.2 -25.6°
